Data for 09/17/2018

Time Sea-Level Adjusted Pressure Absolute Pressure Temperature Relative Humidity Dew Point   
(mb) (inHg) (mb) (inHg) (C) (F) (%) (C) (F)
00:05 1019 30.09 848 25.04 12.4 54.3 63 5.6 42.1
00:10 1019 30.09 848 25.04 12.2 53.9 64 5.7 42.2
00:15 1019 30.09 848 25.04 11.9 53.5 66 5.8 42.5
00:20 1019 30.09 848 25.04 11.8 53.2 66 5.8 42.4
00:25 1019 30.09 848 25.04 11.6 52.9 68 5.8 42.5
00:30 1019 30.09 848 25.04 11.4 52.5 69 5.9 42.6
00:35 1019 30.09 848 25.04 11.3 52.4 69 5.8 42.5
00:40 1019 30.09 848 25.04 11.5 52.6 68 5.9 42.5
00:45 1019 30.09 848 25.04 11.6 53 67 5.7 42.3
00:50 1019 30.09 849 25.07 11.7 53.1 67 5.8 42.5
00:55 1019 30.09 849 25.07 11.6 52.8 68 5.9 42.6
01:00 1019 30.09 849 25.07 11.4 52.4 69 5.9 42.6
01:05 1019 30.09 849 25.07 11.2 52.2 69 5.9 42.6
01:10 1019 30.09 849 25.07 11.1 52 70 5.8 42.5
01:15 1020 30.12 849 25.07 11.1 51.9 69 5.7 42.2
01:20 1020 30.12 849 25.07 11.2 52.1 69 5.7 42.2
01:25 1020 30.12 849 25.07 11.2 52.1 68 5.6 42.1
01:30 1020 30.12 849 25.07 11.2 52.1 68 5.5 41.9
01:35 1020 30.12 849 25.07 11.1 52 68 5.5 41.8
01:40 1020 30.12 849 25.07 11 51.8 68 5.4 41.7
01:45 1020 30.12 849 25.07 11 51.7 68 5.4 41.6
01:50 1020 30.12 849 25.07 10.9 51.7 68 5.4 41.7
01:55 1020 30.12 849 25.07 10.8 51.4 69 5.3 41.5
02:00 1020 30.12 849 25.07 10.5 51 70 5.2 41.4
02:05 1020 30.12 849 25.07 10.4 50.7 70 5.1 41.2
02:10 1020 30.12 849 25.07 10.3 50.5 70 5.1 41.1
02:15 1020 30.12 849 25.07 10.3 50.5 70 5 41
02:20 1020 30.12 849 25.07 10.3 50.5 69 5 40.9
02:25 1020 30.12 849 25.07 10.3 50.6 69 4.9 40.9
02:30 1020 30.12 849 25.07 10.4 50.7 69 4.9 40.8
02:35 1020 30.12 849 25.07 10.4 50.8 68 4.8 40.6
02:40 1020 30.12 849 25.07 10.6 51.1 67 4.8 40.7
02:45 1020 30.12 849 25.07 10.7 51.2 67 4.8 40.7
02:50 1020 30.12 849 25.07 10.6 51.1 67 4.7 40.5
02:55 1020 30.12 849 25.07 10.7 51.2 66 4.6 40.3
03:00 1020 30.12 849 25.07 10.7 51.2 66 4.6 40.2
03:05 1020 30.12 849 25.07 10.7 51.2 66 4.5 40.1
03:10 1020 30.12 849 25.07 10.6 51.2 66 4.5 40.1
03:15 1020 30.12 849 25.07 10.6 51.1 66 4.5 40
03:20 1020 30.12 849 25.07 10.5 51 66 4.5 40
03:25 1020 30.12 849 25.07 10.5 51 66 4.5 40.1
03:30 1020 30.12 849 25.07 10.6 51.1 66 4.6 40.2
03:35 1020 30.12 849 25.07 10.5 51 66 4.5 40.1
03:40 1020 30.12 849 25.07 10.5 50.9 66 4.5 40.1
03:45 1020 30.12 849 25.07 10.3 50.6 66 4.4 39.9
03:50 1020 30.12 849 25.07 10.2 50.4 67 4.4 40
03:55 1020 30.12 849 25.07 9.6 49.3 70 4.5 40.1
04:00 1020 30.12 849 25.07 8.9 48 73 4.3 39.7
04:05 1020 30.12 849 25.07 8.2 46.8 75 4 39.2
04:10 1020 30.12 849 25.07 7.9 46.3 75 3.8 38.8
04:15 1020 30.12 849 25.07 7.9 46.1 73 3.4 38.1
04:20 1020 30.12 849 25.07 7.6 45.7 73 3.1 37.6
04:25 1020 30.12 849 25.07 7.4 45.3 73 2.8 37.1
04:30 1020 30.12 849 25.07 7.3 45.1 73 2.8 37.1
04:35 1020 30.12 849 25.07 7.1 44.8 73 2.7 36.8
04:40 1020 30.12 849 25.07 7 44.7 74 2.7 36.9
04:45 1020 30.12 849 25.07 6.9 44.5 74 2.6 36.7
04:50 1020 30.12 849 25.07 6.8 44.2 74 2.6 36.6
04:55 1020 30.12 849 25.07 6.5 43.6 75 2.5 36.4
05:00 1020 30.12 849 25.07 6.3 43.4 75 2.3 36.1
05:05 1020 30.12 849 25.07 6.4 43.5 74 2.1 35.8
05:10 1020 30.12 849 25.07 6.6 43.9 74 2.2 36
05:15 1020 30.12 849 25.07 6.6 44 73 2.1 35.8
05:20 1020 30.12 849 25.07 6.6 43.8 74 2.3 36.1
05:25 1020 30.12 849 25.07 6.3 43.3 75 2.2 35.9
05:30 1020 30.12 849 25.07 6 42.9 76 2 35.7
05:35 1020 30.12 849 25.07 5.9 42.7 75 1.9 35.4
05:40 1020 30.12 849 25.07 6.3 43.4 71 1.6 34.8
05:45 1020 30.12 850 25.1 6.8 44.2 72 2.1 35.7
05:50 1020 30.12 850 25.1 6.8 44.2 71 2 35.5
05:55 1020 30.12 850 25.1 6.9 44.5 71 2 35.6
06:00 1020 30.12 850 25.1 7 44.6 71 2.1 35.9
06:05 1020 30.12 850 25.1 7 44.6 72 2.2 36
06:10 1020 30.12 850 25.1 7 44.5 73 2.5 36.4
06:15 1020 30.12 850 25.1 6.9 44.4 73 2.4 36.3
06:20 1020 30.12 850 25.1 6.9 44.4 77 3.1 37.5
06:25 1020 30.12 850 25.1 6.7 44.1 76 2.8 37
06:30 1020 30.12 850 25.1 6.5 43.7 76 2.6 36.7
06:35 1020 30.12 850 25.1 6.4 43.6 75 2.4 36.3
06:40 1020 30.12 850 25.1 6.4 43.5 76 2.5 36.5
06:45 1020 30.12 850 25.1 6.4 43.5 77 2.7 36.9
06:50 1020 30.12 850 25.1 6.5 43.7 79 3.1 37.5
06:55 1020 30.12 850 25.1 6.3 43.4 79 3.1 37.5
07:00 1020 30.12 850 25.1 6.3 43.3 81 3.2 37.8
07:05 1020 30.12 850 25.1 6.3 43.3 80 3.1 37.6
07:10 1020 30.12 850 25.1 6 42.9 80 2.9 37.2
07:15 1020 30.12 850 25.1 6.1 42.9 80 2.8 37
07:20 1021 30.15 850 25.1 6.1 43.1 78 2.6 36.7
07:25 1021 30.15 850 25.1 6.4 43.4 78 2.7 36.9
07:30 1021 30.15 850 25.1 6.5 43.6 77 2.7 36.8
07:35 1021 30.15 850 25.1 6.6 43.9 77 2.8 37
07:40 1021 30.15 850 25.1 6.8 44.2 76 2.8 37
07:45 1021 30.15 850 25.1 7 44.6 74 2.7 36.9
07:50 1021 30.15 850 25.1 7.2 44.9 73 2.6 36.7
07:55 1021 30.15 850 25.1 7.4 45.3 71 2.5 36.6
08:00 1021 30.15 850 25.1 7.6 45.6 70 2.5 36.5
08:05 1021 30.15 850 25.1 7.8 46 70 2.7 36.8
08:10 1021 30.15 850 25.1 7.9 46.2 69 2.6 36.7
08:15 1021 30.15 850 25.1 8.1 46.6 69 2.8 37
08:20 1021 30.15 850 25.1 8.5 47.2 67 2.8 37.1
08:25 1021 30.15 850 25.1 8.6 47.6 67 3 37.3
08:30 1021 30.15 850 25.1 8.9 47.9 66 2.9 37.2
08:35 1021 30.15 850 25.1 9.1 48.4 66 3 37.4
08:40 1021 30.15 850 25.1 9.3 48.7 65 3.1 37.6
08:45 1021 30.15 850 25.1 9.3 48.7 65 3 37.5
08:50 1021 30.15 850 25.1 9.5 49 65 3.2 37.8
08:55 1021 30.15 850 25.1 9.8 49.6 64 3.2 37.8
09:00 1021 30.15 850 25.1 10 50.1 64 3.6 38.5
09:05 1021 30.15 850 25.1 10.6 51.1 63 3.8 38.8
09:10 1021 30.15 850 25.1 10.9 51.7 62 4.1 39.4
09:15 1021 30.15 850 25.1 11.4 52.4 61 4.2 39.5
09:20 1021 30.15 850 25.1 11.9 53.3 60 4.3 39.7
09:25 1021 30.15 850 25.1 12.2 53.9 60 4.6 40.3
09:30 1021 30.15 850 25.1 12.5 54.6 59 4.8 40.6
09:35 1021 30.15 850 25.1 12.9 55.2 57 4.6 40.3
09:40 1021 30.15 850 25.1 12.9 55.2 57 4.7 40.5
09:45 1021 30.15 850 25.1 13.6 56.4 56 5 41
09:50 1021 30.15 850 25.1 13.4 56.1 55 4.5 40.1
09:55 1021 30.15 850 25.1 13.5 56.4 56 4.9 40.9
10:00 1021 30.15 850 25.1 14 57.2 54 4.8 40.7
10:05 1021 30.15 850 25.1 14.3 57.7 54 5.1 41.1
10:10 1020 30.12 850 25.1 14.6 58.2 50 4.4 39.9
10:15 1020 30.12 850 25.1 14.7 58.4 49 4.3 39.7
10:20 1020 30.12 850 25.1 14.9 58.8 48 3.9 39.1
10:25 1020 30.12 850 25.1 15.3 59.5 46 3.9 39
10:30 1020 30.12 850 25.1 15.9 60.6 44 3.9 38.9
10:35 1020 30.12 850 25.1 16.1 60.9 45 4.3 39.7
10:40 1020 30.12 850 25.1 16 60.8 46 4.5 40
10:45 1020 30.12 850 25.1 16.3 61.4 46 4.9 40.8
10:50 1020 30.12 849 25.07 15.9 60.7 47 4.8 40.6
10:55 1020 30.12 849 25.07 15.5 59.8 49 4.8 40.6
11:00 1020 30.12 849 25.07 15.8 60.4 46 4.2 39.5
11:05 1020 30.12 849 25.07 16.1 61.1 46 4.5 40.1
11:10 1020 30.12 849 25.07 16.2 61.2 44 4.1 39.3
11:15 1020 30.12 849 25.07 15.5 59.8 48 4.5 40.1
11:20 1020 30.12 849 25.07 14.8 58.6 49 4.2 39.5
11:25 1020 30.12 849 25.07 15.4 59.7 46 3.8 38.9
11:30 1020 30.12 849 25.07 16.4 61.6 44 4.3 39.7
11:35 1020 30.12 849 25.07 17.1 62.7 41 4 39.1
11:40 1020 30.12 849 25.07 17.3 63.1 41 4 39.2
11:45 1020 30.12 849 25.07 17 62.6 40 3.5 38.3
11:50 1020 30.12 849 25.07 16.1 60.9 44 4.1 39.3
11:55 1020 30.12 849 25.07 16.4 61.6 43 3.9 38.9
12:00 1020 30.12 849 25.07 16.9 62.5 40 3.5 38.3
12:05 1020 30.12 849 25.07 16.4 61.6 41 3.3 37.9
12:10 1020 30.12 849 25.07 16.7 62 42 3.8 38.8
12:15 1020 30.12 849 25.07 18 64.4 38 3.5 38.2
12:20 1020 30.12 849 25.07 18.2 64.7 38 3.7 38.7
12:25 1020 30.12 849 25.07 17.8 64.1 40 4.2 39.6
12:30 1020 30.12 849 25.07 18.2 64.7 37 3.5 38.3
12:35 1020 30.12 849 25.07 18 64.4 36 3 37.4
12:40 1019 30.09 849 25.07 18.2 64.8 36 3 37.3
12:45 1019 30.09 849 25.07 18.8 65.9 34 2.8 37
12:50 1019 30.09 849 25.07 19.4 66.9 31 2.2 35.9
12:55 1019 30.09 849 25.07 19.7 67.4 32 2.6 36.6
13:00 1019 30.09 849 25.07 19.8 67.6 31 2.3 36.2
13:05 1019 30.09 848 25.04 19.9 67.9 32 3.1 37.6
13:10 1019 30.09 848 25.04 20.1 68.1 29 1.7 35
13:15 1019 30.09 848 25.04 20.5 68.8 27 1.1 33.9
13:20 1019 30.09 848 25.04 20.5 68.9 28 1.7 35
13:25 1019 30.09 848 25.04 20.7 69.3 27 1 33.8
13:30 1019 30.09 848 25.04 20.7 69.3 26 0.8 33.5
13:35 1019 30.09 848 25.04 20.9 69.5 25 0.5 32.9
13:40 1019 30.09 848 25.04 20.9 69.6 25 0.3 32.5
13:45 1019 30.09 848 25.04 20.8 69.5 27 1.4 34.6
13:50 1019 30.09 848 25.04 20.8 69.4 27 1 33.8
13:55 1019 30.09 848 25.04 20.8 69.4 25 0.3 32.6
14:00 1019 30.09 848 25.04 20 68 27 0.6 33.1
14:05 1019 30.09 848 25.04 20.9 69.7 25 0.5 32.8
14:10 1019 30.09 848 25.04 21.1 70 23 -0.5 31.2
14:15 1019 30.09 848 25.04 20.6 69.1 26 0.7 33.2
14:20 1019 30.09 848 25.04 20.7 69.3 23 -1.2 29.9
14:25 1019 30.09 848 25.04 21 69.9 23 -0.7 30.7
14:30 1019 30.09 848 25.04 21 69.7 22 -1.2 29.8
14:35 1018 30.06 848 25.04 20.1 68.2 22 -2.1 28.2
14:40 1018 30.06 848 25.04 20.1 68.1 23 -1.8 28.7
14:45 1018 30.06 848 25.04 21.1 70 20 -2.3 27.8
14:50 1018 30.06 847 25.01 20.4 68.7 22 -2 28.5
14:55 1018 30.06 847 25.01 20.9 69.6 21 -1.8 28.8
15:00 1018 30.06 847 25.01 21.1 69.9 22 -1.2 29.9
15:05 1018 30.06 847 25.01 21 69.9 22 -1.1 30.1
15:10 1018 30.06 847 25.01 21 69.8 20 -2.3 27.8
15:15 1018 30.06 847 25.01 21.9 71.3 20 -1.7 29
15:20 1018 30.06 847 25.01 21.5 70.6 22 -0.8 30.6
15:25 1018 30.06 847 25.01 21.8 71.3 21 -1.6 29.2
15:30 1018 30.06 847 25.01 21.8 71.3 20 -2 28.3
15:35 1018 30.06 847 25.01 22 71.6 19 -2.6 27.4
15:40 1018 30.06 847 25.01 22.4 72.2 20 -1.3 29.6
15:45 1018 30.06 847 25.01 22.4 72.2 19 -2.2 28.1
15:50 1018 30.06 847 25.01 22.4 72.4 20 -1.8 28.8
15:55 1018 30.06 847 25.01 22.7 72.9 20 -1.1 30
16:00 1018 30.06 847 25.01 22.1 71.8 21 -1 30.1
16:05 1018 30.06 847 25.01 22.5 72.4 21 -1 30.1
16:10 1018 30.06 847 25.01 22.9 73.2 17 -3.2 26.2
16:15 1018 30.06 847 25.01 22.2 72 20 -1.9 28.6
16:20 1018 30.06 847 25.01 21.8 71.3 18 -3 26.5
16:25 1017 30.03 847 25.01 22.1 71.8 18 -3.1 26.4
16:30 1017 30.03 847 25.01 22.5 72.4 17 -3.7 25.4
16:35 1017 30.03 847 25.01 22.8 73.1 17 -3.3 26.1
16:40 1017 30.03 847 25.01 23 73.4 16 -3.9 24.9
16:45 1017 30.03 847 25.01 22.9 73.1 15 -4.7 23.5
16:50 1017 30.03 847 25.01 23 73.5 17 -3.2 26.2
16:55 1017 30.03 846 24.98 22.6 72.7 18 -3 26.6
17:00 1017 30.03 846 24.98 22.7 72.8 16 -4 24.8
17:05 1017 30.03 846 24.98 22.6 72.7 15 -5.2 22.7
17:10 1017 30.03 847 25.01 22.6 72.7 15 -5.3 22.4
17:15 1017 30.03 847 25.01 22.2 71.9 16 -5.1 22.8
17:20 1017 30.03 847 25.01 21.7 71.1 15 -5.5 22.1
17:25 1017 30.03 846 24.98 22 71.5 15 -5.3 22.5
17:30 1017 30.03 846 24.98 21.9 71.4 17 -4.3 24.3
17:35 1017 30.03 846 24.98 22.3 72.2 15 -5.8 21.6
17:40 1017 30.03 846 24.98 22.7 72.9 15 -5.1 22.8
17:45 1017 30.03 847 25.01 23 73.3 14 -5.7 21.7
17:50 1017 30.03 847 25.01 23 73.4 14 -5.9 21.4
17:55 1017 30.03 847 25.01 22.8 73.1 15 -4.9 23.2
18:00 1017 30.03 847 25.01 22.1 71.8 15 -5.9 21.4
18:05 1017 30.03 847 25.01 21.8 71.3 15 -6.1 21.1
18:10 1017 30.03 847 25.01 21.9 71.4 14 -6.2 20.8
18:15 1017 30.03 847 25.01 22.4 72.3 13 -6.7 19.9
18:20 1017 30.03 847 25.01 22.4 72.3 14 -6.1 21
18:25 1017 30.03 847 25.01 21.9 71.4 14 -6.5 20.4
18:30 1017 30.03 847 25.01 21.3 70.3 16 -5.8 21.6
18:35 1017 30.03 847 25.01 20.8 69.5 17 -4.8 23.3
18:40 1017 30.03 847 25.01 20.7 69.2 16 -5.6 21.9
18:45 1017 30.03 847 25.01 20.6 69.1 15 -6.6 20
18:50 1017 30.03 847 25.01 20.5 68.9 17 -5.4 22.3
18:55 1017 30.03 847 25.01 20.4 68.7 20 -3 26.6
19:00 1017 30.03 847 25.01 20.3 68.5 21 -2.6 27.3
19:05 1017 30.03 847 25.01 19.9 67.8 20 -3.4 25.9
19:10 1017 30.03 847 25.01 19.6 67.2 18 -5.4 22.3
19:15 1017 30.03 847 25.01 19.5 67.2 19 -4.9 23.2
19:20 1018 30.06 847 25.01 19.5 67.1 19 -4.6 23.8
19:25 1018 30.06 847 25.01 18.9 66 26 -1 30.2
19:30 1018 30.06 847 25.01 18.3 64.9 30 0.4 32.8
19:35 1018 30.06 847 25.01 17.7 63.8 32 1 33.8
19:40 1018 30.06 847 25.01 17 62.5 36 1.7 35.1
19:45 1018 30.06 847 25.01 16.2 61.2 38 2 35.6
19:50 1018 30.06 847 25.01 15.8 60.4 40 2.5 36.5
19:55 1018 30.06 847 25.01 15.2 59.3 45 3.3 38
20:00 1018 30.06 847 25.01 14.4 57.9 46 3 37.4
20:05 1018 30.06 847 25.01 14 57.2 52 4.5 40.1
20:10 1018 30.06 847 25.01 13.5 56.3 38 -0.5 31.2
20:15 1018 30.06 847 25.01 14 57.3 36 -0.8 30.6
20:20 1018 30.06 847 25.01 14.2 57.6 36 -0.6 31
20:25 1018 30.06 847 25.01 14.2 57.5 35 -0.9 30.4
20:30 1018 30.06 847 25.01 14.1 57.4 36 -0.6 30.9
20:35 1018 30.06 847 25.01 13.9 57.1 35 -1.2 29.9
20:40 1018 30.06 847 25.01 14 57.2 36 -0.8 30.6
20:45 1018 30.06 847 25.01 14.1 57.4 35 -1.1 30.1
20:50 1018 30.06 847 25.01 14.2 57.5 35 -0.9 30.4
20:55 1018 30.06 847 25.01 14.4 57.8 36 -0.5 31.2
21:00 1018 30.06 848 25.04 14.5 58 36 -0.4 31.3
21:05 1018 30.06 848 25.04 14.8 58.6 35 -0.3 31.4
21:10 1018 30.06 848 25.04 15.2 59.3 36 0.2 32.4
21:15 1018 30.06 848 25.04 15.5 60 36 0.8 33.4
21:20 1018 30.06 848 25.04 15.7 60.3 38 1.5 34.8
21:25 1018 30.06 848 25.04 15.7 60.3 40 2.2 36
21:30 1018 30.06 848 25.04 15.7 60.3 41 2.6 36.7
21:35 1018 30.06 848 25.04 15.7 60.3 42 2.8 37.1
21:40 1018 30.06 848 25.04 15.7 60.3 42 3 37.4
21:45 1019 30.09 848 25.04 15.5 60 43 3.1 37.6
21:50 1019 30.09 848 25.04 15.4 59.7 44 3.3 38
21:55 1018 30.06 848 25.04 15.3 59.5 45 3.5 38.4
22:00 1018 30.06 848 25.04 15.2 59.3 46 3.7 38.7
22:05 1018 30.06 848 25.04 15.1 59.2 47 3.9 39.1
22:10 1018 30.06 848 25.04 15 58.9 48 4.1 39.4
22:15 1018 30.06 848 25.04 15 58.9 49 4.3 39.8
22:20 1018 30.06 848 25.04 14.9 58.8 49 4.4 39.9
22:25 1018 30.06 848 25.04 14.8 58.6 50 4.5 40.1
22:30 1018 30.06 848 25.04 14.7 58.4 50 4.5 40.2
22:35 1018 30.06 848 25.04 14.7 58.4 51 4.6 40.3
22:40 1018 30.06 848 25.04 14.6 58.3 51 4.7 40.4
22:45 1018 30.06 848 25.04 14.6 58.2 51 4.7 40.5
22:50 1018 30.06 848 25.04 14.5 58.1 51 4.6 40.3
22:55 1018 30.06 848 25.04 14.6 58.2 50 4.5 40.1
23:00 1018 30.06 848 25.04 14.6 58.2 51 4.6 40.2
23:05 1018 30.06 848 25.04 14.4 58 51 4.5 40.1
23:10 1019 30.09 848 25.04 14.4 57.9 51 4.5 40.1
23:15 1019 30.09 848 25.04 14.4 57.9 52 4.6 40.3
23:20 1019 30.09 848 25.04 14.2 57.6 53 4.9 40.7
23:25 1019 30.09 848 25.04 14.1 57.4 54 5 41
23:30 1018 30.06 848 25.04 14 57.1 55 5.1 41.1
23:35 1018 30.06 848 25.04 13.8 56.8 55 5.1 41.1
23:40 1018 30.06 848 25.04 13.6 56.6 56 5 41.1
23:45 1018 30.06 848 25.04 13.5 56.2 57 5.1 41.2
23:50 1018 30.06 848 25.04 13.4 56 57 5.1 41.1
23:55 1018 30.06 848 25.04 13.3 55.9 57 5.1 41.2
24:00 1018 30.06 848 25.04 13.3 55.9 57 5 41